Wind_Speed
12 12 12 12 12 13 14 14 15 14 14 17 19 21 23 24 27 29 32 33 33 34 34 33 32 30 31 30 27 27 27 25 24 24 23 23 20 20 20 19 18 17 16 16
10 10 10 10 11 12 13 14 14 13 14 16 18 21 23 24 25 27 28 30 30 31 32 32 32 31 29 29 27 25 24 24 23 24 24 23 22 22 21 20 19 18 17 17
10 8 9 10 11 13 14 14 15 15 17 17 18 21 23 23 24 25 26 27 29 30 30 29 28 28 28 29 29 26 22 24 23 23 23 23 24 23 22 21 20 20 19 19
10 9 10 10 11 13 15 15 16 16 18 19 20 23 24 24 24 24 24 26 28 29 29 29 29 28 28 28 27 25 23 23 23 22 23 24 25 24 24 23 22 21 20 21
11 10 11 11 11 13 14 16 17 17 19 20 21 23 25 25 26 25 25 26 28 29 29 29 30 30 29 29 27 25 24 23 24 23 23 24 25 25 25 24 23 23 23 23
12 10 9 11 13 13 14 15 17 18 20 20 20 23 24 24 24 25 26 26 27 29 29 29 29 29 28 27 27 26 25 25 25 24 23 24 25 25 25 25 24 25 25 25
13 11 10 10 11 11 13 14 15 16 18 19 20 23 24 24 25 24 25 25 25 27 28 28 28 27 27 27 27 27 28 26 26 26 26 26 26 27 28 26 26 26 26 26
13 10 9 9 9 10 12 14 15 15 16 17 19 21 22 23 24 24 24 23 24 26 27 28 29 29 28 27 28 28 28 28 27 28 28 28 27 27 27 26 26 27 28 28
11 8 8 8 9 9 12 14 16 16 16 17 19 21 21 21 23 23 23 24 24 25 26 27 28 28 28 28 28 28 28 29 29 29 29 29 29 29 28 29 29 29 30 30
10 8 6 6 7 9 11 12 15 17 16 17 18 19 22 22 23 23 23 25 25 25 26 26 26 27 28 28 29 29 29 29 30 30 30 30 30 30 30 30 31 32 32 32
10 8 5 5 6 7 9 11 14 16 17 17 17 17 18 18 19 21 22 25 25 24 25 25 25 26 26 27 27 28 28 29 30 30 31 31 31 31 31 31 32 32 33 33
8 6 5 5 5 7 8 8 11 13 15 15 16 15 13 14 15 16 18 19 21 23 24 24 25 26 26 27 28 28 28 29 30 30 31 31 32 32 32 33 33 34 34 35
6 4 3 5 5 6 7 7 9 10 11 12 14 13 14 15 14 14 15 17 19 21 22 23 24 25 25 26 27 28 28 29 29 30 31 32 32 33 33 34 34 35 35 36
4 3 2 3 5 5 6 7 9 10 11 13 15 16 16 15 15 14 13 13 16 18 19 21 22 24 25 26 27 28 28 29 30 31 32 33 33 33 34 34 35 35 36 36
3 2 1 1 3 5 6 6 8 10 12 13 14 15 15 15 15 15 13 13 15 16 18 20 22 23 24 26 27 28 29 29 30 30 31 31 32 32 33 33 34 34 35 35
3 2 1 1 3 4 6 7 8 9 11 12 13 14 15 15 16 15 14 14 15 16 17 19 21 23 24 25 26 27 27 28 28 28 28 29 30 31 31 32 32 33 33 34
4 3 2 2 3 5 6 6 8 9 10 11 12 14 15 15 15 15 15 16 17 17 18 19 20 21 23 24 25 26 26 26 27 27 28 28 28 29 29 30 31 31 31 32
3 4 4 5 5 5 6 7 8 10 11 13 13 14 14 15 16 17 17 16 16 17 19 19 20 21 21 22 23 23 24 25 25 26 27 28 28 29 29 29 29 29 29 29
4 4 5 6 6 8 9 9 10 11 12 13 14 14 14 15 16 16 16 16 17 18 18 19 19 19 20 20 20 21 21 22 23 24 25 26 26 27 27 27 27 27 26 26
4 5 6 7 8 10 10 10 11 12 12 13 13 14 14 14 14 15 15 15 16 17 17 17 18 18 19 19 20 20 20 20 21 22 22 23 23 23 23 23 23 23 23 24
4 6 7 8 9 10 11 11 12 13 14 14 14 13 13 13 13 14 14 13 14 14 15 17 17 17 18 18 19 19 19 19 20 20 21 21 21 21 21 22 22 22 23 23
5 7 8 9 10 11 12 12 13 13 13 14 14 13 13 13 13 13 12 12 12 13 14 15 16 16 17 18 18 19 19 19 19 19 19 20 20 20 21 20 20 21 21 21
5 7 8 10 11 11 12 12 13 13 14 14 14 14 14 14 13 13 12 11 12 13 14 15 15 15 16 16 16 16 17 17 18 18 18 19 18 19 19 19 19 19 19 19
4 7 8 10 11 12 12 13 13 14 14 14 14 14 14 14 14 13 12 11 11 12 12 13 13 13 14 14 14 14 15 15 16 16 17 17 17 17 17 17 17 17 17 16
4 6 8 10 11 12 13 13 13 14 14 15 15 15 14 14 13 12 12 12 11 11 11 11 11 11 12 12 13 13 14 15 15 14 14 14 15 15 15 15 14 14 13 14
4 6 8 10 11 12 13 14 14 14 15 15 15 15 15 14 13 12 12 12 11 10 10 10 9 10 10 10 10 11 11 11 11 11 11 12 13 13 13 12 12 12 12 12
Wind_Direction
277 269 261 252 242 231 221 220 218 209 211 222 220 218 219 223 227 229 232 236 240 244 247 251 255 260 261 262 258 251 247 244 239 233 234 236 236 238 238 240 242 243 246 252
275 265 251 240 228 226 222 221 213 208 216 222 218 218 219 221 224 228 232 235 238 242 246 250 254 258 260 263 265 258 247 249 243 238 238 239 237 238 243 247 246 245 250 259
284 264 245 234 228 229 223 225 219 215 214 219 222 222 223 224 227 229 232 236 239 242 247 251 256 259 259 264 266 264 254 247 247 246 245 247 241 241 245 250 251 253 255 262
293 272 258 244 241 238 228 224 226 215 216 220 226 229 226 228 232 233 235 239 241 244 247 252 255 256 257 260 265 262 259 253 251 253 253 255 249 247 249 251 256 258 262 268
304 286 268 251 249 242 234 229 228 226 221 221 225 234 230 229 232 237 240 242 244 246 248 252 254 254 253 256 262 263 262 260 258 259 258 259 256 256 257 256 260 263 265 271
310 297 276 262 248 243 238 234 232 232 227 225 229 237 236 234 237 239 241 245 246 247 250 252 256 253 252 257 260 263 264 263 265 265 267 266 265 264 265 263 262 264 267 271
307 295 277 261 249 238 233 236 236 236 230 233 234 239 240 240 242 243 242 245 247 249 252 255 257 256 255 258 261 265 266 266 267 269 270 270 271 272 270 269 270 271 269 272
308 301 277 261 246 232 229 234 234 238 233 234 236 241 241 242 242 244 244 245 248 249 251 254 257 258 258 260 262 265 267 268 270 270 270 272 273 274 272 272 274 276 275 276
309 307 286 267 243 232 228 233 236 242 241 238 238 243 248 247 245 245 247 249 252 250 251 253 256 259 261 263 264 266 267 269 270 271 271 272 273 274 275 275 277 278 279 280
311 309 291 261 247 238 236 234 239 246 250 247 245 251 255 260 255 252 249 251 253 252 251 253 257 259 259 260 262 265 267 267 268 269 270 270 271 272 274 276 278 279 280 281
312 303 287 259 244 234 229 233 241 248 253 254 258 262 262 266 267 260 255 255 253 252 254 255 256 257 258 258 260 263 265 266 267 269 269 271 272 274 275 276 278 279 280 282
317 306 275 245 240 236 239 243 244 251 254 261 272 278 277 279 281 271 264 255 249 252 256 258 258 259 259 260 263 265 266 266 267 269 270 271 273 274 275 276 278 278 278 281
322 311 265 236 241 234 246 250 258 266 266 271 282 289 293 294 293 287 281 268 258 257 257 258 260 260 261 263 265 267 267 268 269 270 271 272 273 274 276 277 278 279 280 283
335 319 296 247 245 253 266 270 279 288 291 286 288 293 298 300 299 300 292 281 264 261 262 262 262 262 263 264 265 266 267 268 268 270 271 272 274 275 276 278 279 280 282 284
8 9 337 253 272 284 284 289 293 292 294 293 292 295 302 304 306 300 293 283 274 269 267 266 266 265 266 266 265 266 267 269 270 271 271 272 274 275 277 278 279 280 282 284
24 24 1 306 291 298 303 300 303 300 301 300 297 301 303 305 303 299 297 292 281 277 274 271 269 269 270 270 269 269 269 270 271 272 273 274 275 276 277 278 279 281 283 283
33 43 35 357 321 320 314 320 316 314 313 310 306 305 304 305 303 299 294 292 288 282 279 277 274 271 271 270 270 269 268 269 270 272 272 274 275 277 279 280 281 282 284 284
22 23 16 5 2 354 346 335 334 329 323 323 318 313 306 306 304 301 295 291 289 288 286 284 279 274 272 272 272 271 270 269 270 271 272 275 277 279 280 280 280 282 283 284
35 21 12 2 359 355 348 346 343 339 335 330 325 321 313 310 307 303 298 293 289 287 285 283 282 278 276 276 274 274 271 269 270 270 271 275 278 278 277 277 278 279 281 281
37 23 12 1 357 356 352 348 345 340 338 333 328 323 321 319 314 310 303 294 287 284 283 283 283 282 281 280 277 277 274 272 272 273 275 277 277 278 278 278 279 281 281 281
28 19 13 4 360 358 353 351 347 343 338 335 332 329 326 323 320 315 307 299 294 288 286 284 281 280 280 278 277 276 276 276 276 277 278 279 280 280 280 280 281 281 283 284
25 15 11 5 2 359 354 352 349 344 340 338 336 334 332 328 324 319 313 306 301 295 290 287 283 282 282 281 277 276 276 278 278 278 279 280 280 280 281 282 283 284 284 284
22 14 12 9 5 1 358 354 351 348 345 343 340 337 336 333 328 325 320 314 310 304 298 292 288 287 284 282 280 278 276 277 277 278 279 280 280 280 281 283 285 286 286 286
27 16 13 10 7 3 360 357 355 353 352 350 347 343 341 338 334 329 325 319 315 312 309 304 298 293 290 286 283 281 281 281 280 280 279 280 281 282 285 287 289 289 289 288
30 18 14 12 9 7 5 3 1 359 358 357 355 352 349 348 345 339 336 333 326 321 317 313 307 302 296 291 291 288 284 283 283 282 282 283 284 287 288 288 289 290 292 292
26 22 19 15 12 11 10 9 7 7 6 4 1 0 359 358 357 353 348 345 341 337 331 325 318 310 303 298 295 292 289 288 289 290 290 291 291 291 290 290 291 292 295 296
Height
5796 5796 5795 5795 5795 5796 5796 5798 5799 5801 5803 5804 5805 5808 5810 5812 5815 5818 5821 5824 5827 5829 5831 5833 5834 5835 5837 5837 5838 5838 5838 5838 5840 5843 5844 5845 5847 5848 5848 5849 5849 5850 5851 5851
5793 5792 5791 5790 5791 5792 5792 5794 5795 5798 5799 5800 5801 5804 5806 5808 5811 5814 5817 5820 5822 5824 5826 5828 5829 5829 5831 5831 5830 5831 5830 5832 5834 5837 5838 5839 5840 5842 5843 5843 5844 5844 5845 5845
5790 5789 5787 5787 5787 5788 5789 5790 5791 5793 5795 5796 5798 5800 5802 5805 5807 5810 5813 5815 5817 5819 5821 5823 5825 5825 5827 5828 5827 5825 5825 5827 5828 5829 5831 5832 5833 5835 5836 5837 5838 5839 5839 5839
5787 5786 5784 5784 5784 5784 5785 5787 5787 5789 5791 5793 5795 5796 5799 5800 5803 5805 5808 5809 5811 5813 5815 5817 5819 5820 5821 5822 5822 5821 5820 5822 5823 5825 5827 5827 5827 5828 5829 5830 5831 5832 5832 5833
5783 5782 5781 5780 5781 5781 5781 5783 5783 5785 5786 5789 5790 5791 5795 5796 5799 5800 5802 5803 5806 5807 5810 5811 5812 5813 5814 5816 5817 5818 5817 5817 5818 5819 5820 5820 5821 5822 5823 5823 5825 5826 5827 5827
5780 5779 5778 5777 5776 5777 5778 5779 5780 5781 5783 5785 5787 5788 5790 5792 5793 5795 5797 5798 5800 5802 5803 5805 5805 5805 5807 5809 5811 5812 5812 5812 5813 5814 5814 5814 5815 5816 5817 5817 5818 5819 5820 5820
5778 5776 5774 5774 5773 5773 5774 5776 5777 5778 5779 5782 5783 5783 5785 5786 5788 5790 5791 5793 5794 5796 5797 5798 5799 5800 5801 5803 5805 5806 5806 5806 5807 5808 5808 5808 5809 5810 5810 5811 5812 5812 5812 5813
5775 5774 5771 5770 5770 5771 5772 5773 5775 5776 5777 5778 5779 5779 5780 5781 5783 5785 5786 5787 5789 5790 5791 5793 5794 5795 5796 5797 5798 5799 5800 5801 5801 5801 5802 5802 5803 5803 5804 5804 5804 5805 5805 5805
5772 5771 5769 5768 5768 5769 5769 5770 5772 5773 5774 5775 5775 5775 5776 5776 5778 5779 5781 5782 5783 5785 5786 5787 5788 5789 5790 5791 5791 5792 5793 5794 5795 5795 5795 5796 5796 5797 5797 5797 5797 5797 5797 5797
5770 5768 5767 5767 5767 5767 5768 5768 5769 5770 5771 5771 5772 5772 5772 5773 5773 5774 5775 5777 5778 5779 5780 5781 5782 5783 5784 5784 5785 5786 5786 5787 5787 5788 5788 5789 5789 5789 5789 5789 5789 5789 5788 5788
5768 5767 5766 5765 5765 5764 5766 5766 5766 5767 5768 5768 5769 5771 5769 5769 5768 5769 5770 5771 5772 5773 5774 5775 5776 5777 5778 5778 5778 5779 5780 5780 5781 5781 5781 5781 5781 5781 5781 5781 5781 5780 5780 5779
5765 5765 5764 5764 5763 5763 5763 5764 5764 5765 5765 5765 5765 5768 5765 5765 5764 5764 5764 5764 5765 5767 5768 5769 5770 5771 5771 5771 5772 5772 5772 5773 5773 5773 5773 5773 5773 5773 5773 5773 5772 5772 5771 5770
5764 5764 5763 5763 5764 5763 5762 5762 5762 5762 5763 5762 5762 5765 5762 5761 5760 5760 5760 5759 5760 5761 5762 5763 5764 5764 5765 5765 5765 5764 5764 5765 5765 5765 5765 5765 5765 5765 5764 5764 5763 5762 5761 5760
5763 5763 5763 5762 5761 5761 5760 5760 5760 5760 5760 5759 5760 5760 5759 5757 5756 5756 5756 5755 5755 5756 5756 5756 5757 5757 5758 5757 5757 5757 5757 5757 5757 5757 5757 5757 5756 5756 5756 5755 5754 5753 5752 5751
5763 5762 5761 5761 5760 5759 5759 5759 5758 5758 5757 5757 5756 5756 5755 5754 5753 5752 5751 5751 5751 5751 5750 5750 5750 5750 5750 5750 5750 5750 5750 5749 5749 5749 5749 5748 5748 5748 5747 5746 5745 5744 5743 5742
5762 5761 5761 5760 5759 5758 5758 5757 5757 5756 5754 5753 5753 5752 5751 5750 5749 5748 5747 5746 5746 5746 5745 5745 5744 5743 5743 5743 5743 5742 5742 5742 5741 5741 5741 5740 5740 5739 5739 5738 5737 5736 5734 5733
5762 5761 5761 5760 5758 5758 5757 5756 5754 5753 5752 5751 5750 5749 5747 5746 5745 5744 5743 5742 5741 5740 5739 5738 5737 5737 5736 5736 5736 5735 5735 5734 5734 5734 5733 5732 5732 5731 5731 5730 5729 5727 5726 5724
5762 5761 5760 5759 5759 5757 5757 5754 5752 5751 5749 5747 5746 5744 5743 5741 5740 5739 5738 5737 5736 5735 5733 5732 5731 5731 5730 5729 5729 5728 5727 5727 5727 5726 5726 5725 5725 5724 5723 5722 5721 5719 5718 5716
5762 5761 5759 5758 5757 5756 5754 5752 5750 5748 5746 5745 5743 5741 5739 5737 5735 5734 5732 5731 5730 5729 5727 5726 5725 5724 5723 5723 5722 5721 5721 5720 5720 5719 5719 5718 5718 5717 5716 5714 5713 5712 5710 5708
5761 5760 5759 5758 5756 5754 5754 5751 5748 5747 5745 5742 5740 5737 5735 5733 5732 5730 5728 5726 5725 5723 5722 5721 5720 5719 5717 5717 5716 5715 5715 5714 5713 5713 5712 5711 5711 5710 5708 5707 5706 5705 5703 5701
5761 5760 5758 5757 5755 5753 5751 5748 5746 5745 5743 5739 5737 5734 5732 5730 5728 5726 5724 5722 5720 5719 5717 5716 5715 5714 5712 5711 5710 5710 5709 5708 5707 5707 5706 5705 5704 5703 5702 5701 5700 5698 5697 5695
5760 5759 5757 5755 5754 5754 5749 5747 5745 5743 5739 5736 5734 5731 5729 5727 5724 5722 5720 5718 5716 5715 5713 5711 5710 5708 5707 5706 5705 5704 5703 5702 5701 5701 5700 5699 5698 5697 5696 5694 5693 5692 5690 5688
5759 5759 5757 5755 5755 5751 5748 5745 5743 5740 5737 5734 5731 5729 5726 5724 5721 5719 5717 5715 5713 5711 5709 5707 5705 5704 5702 5701 5700 5699 5698 5697 5696 5695 5694 5693 5692 5691 5690 5688 5687 5686 5684 5683
5759 5758 5756 5754 5752 5749 5747 5744 5741 5738 5736 5733 5730 5727 5724 5721 5718 5716 5714 5711 5709 5707 5705 5703 5701 5699 5697 5696 5695 5694 5693 5692 5691 5690 5689 5688 5687 5686 5684 5683 5682 5680 5679 5677
5758 5757 5755 5753 5751 5748 5746 5743 5740 5737 5734 5731 5728 5725 5722 5719 5716 5714 5711 5708 5706 5704 5701 5699 5697 5695 5694 5692 5691 5690 5688 5687 5686 5685 5684 5683 5682 5681 5680 5678 5677 5675 5674 5673
5758 5757 5755 5753 5751 5749 5746 5742 5739 5736 5733 5730 5727 5724 5721 5718 5715 5712 5709 5706 5704 5701 5699 5696 5694 5692 5690 5689 5687 5686 5684 5683 5682 5681 5680 5679 5678 5676 5675 5674 5673 5672 5671 5669